Terminal Aerodrome Forecast
Issued by NWS Sioux Falls, SD

Home | Current Version | Previous Version | Text Only | Print | Product List | Glossary Off
Versions: 1 2 3 4 5 6 7 8 9 10 11 12 13 14 15 16 17 18 19 20 21 22 23 24 25 26 27 28 29 30 31

000
FTUS43 KFSD 010520
TAFSUX
TAF
KSUX 010520Z 0106/0206 12003KT P6SM FEW250
     FM011400 17007KT P6SM SCT120 SCT250
     FM011700 20010KT P6SM SCT090
     FM012000 23013G20KT P6SM SCT050 PROB30 0122/0124 4SM TSRA
      BKN040CB
     FM020100 20011KT P6SM SCT100 BKN250=

USA.gov is the U.S. government's official web portal to all federal, state and local government web resources and services.